Time,TemperatureF,DewpointF,PressureIn,WindDirection,WindDirectionDegrees,WindSpeedMPH,WindSpeedGustMPH,Humidity,HourlyPrecipIn,Conditions,Clouds,dailyrainin,SoftwareType,DateUTC
2013-01-30 00:00:00,51.0,50.0,-100.00,South,182,6.0,-999.0,98,0.00,,,0.39,,2013-01-30 06:00:00,
2013-01-30 00:32:00,51.0,50.0,-100.00,South,182,6.0,-999.0,98,0.00,,,0.39,,2013-01-30 06:32:00,
2013-01-30 00:42:00,51.0,50.0,-100.00,South,182,6.0,-999.0,98,0.00,,,0.39,,2013-01-30 06:42:00,
2013-01-30 00:52:00,51.0,50.0,-100.00,South,182,6.0,-999.0,98,0.00,,,0.39,,2013-01-30 06:52:00,
2013-01-30 01:00:00,51.0,48.0,-100.00,SSW,194,7.0,-999.0,91,0.00,,,0.39,,2013-01-30 07:00:00,
2013-01-30 01:32:00,51.0,48.0,-100.00,SSW,194,7.0,-999.0,91,0.00,,,0.39,,2013-01-30 07:32:00,
2013-01-30 01:42:00,51.0,48.0,-100.00,SSW,194,7.0,-999.0,91,0.00,,,0.39,,2013-01-30 07:42:00,
2013-01-30 01:52:00,51.0,48.0,-100.00,SSW,194,7.0,-999.0,91,0.00,,,0.39,,2013-01-30 07:52:00,
2013-01-30 02:00:00,50.0,43.0,-100.00,SW,222,8.0,-999.0,75,0.00,,,0.39,,2013-01-30 08:00:00,
2013-01-30 02:32:00,50.0,43.0,-100.00,SW,222,8.0,-999.0,75,0.00,,,0.39,,2013-01-30 08:32:00,
2013-01-30 02:42:00,50.0,43.0,-100.00,SW,222,8.0,-999.0,75,0.00,,,0.39,,2013-01-30 08:42:00,
2013-01-30 02:52:00,50.0,43.0,-100.00,SW,222,8.0,-999.0,75,0.00,,,0.39,,2013-01-30 08:52:00,
2013-01-30 03:00:00,48.0,39.0,-100.00,SW,220,6.0,-999.0,71,0.00,,,0.39,,2013-01-30 09:00:00,
2013-01-30 03:32:00,48.0,39.0,-100.00,SW,220,6.0,-999.0,71,0.00,,,0.39,,2013-01-30 09:32:00,
2013-01-30 03:42:00,48.0,39.0,-100.00,SW,220,6.0,-999.0,71,0.00,,,0.39,,2013-01-30 09:42:00,
2013-01-30 03:52:00,48.0,39.0,-100.00,SW,220,6.0,-999.0,71,0.00,,,0.39,,2013-01-30 09:52:00,
2013-01-30 04:00:00,47.0,41.0,-100.00,West,265,5.0,-999.0,82,0.00,,,0.39,,2013-01-30 10:00:00,
2013-01-30 04:32:00,47.0,41.0,-100.00,West,265,5.0,-999.0,82,0.00,,,0.39,,2013-01-30 10:32:00,
2013-01-30 04:42:00,47.0,41.0,-100.00,West,265,5.0,-999.0,82,0.00,,,0.39,,2013-01-30 10:42:00,
2013-01-30 04:52:00,47.0,41.0,-100.00,West,265,5.0,-999.0,82,0.00,,,0.39,,2013-01-30 10:52:00,
2013-01-30 05:00:00,44.0,39.0,-100.00,NNW,332,14.0,-999.0,82,0.00,,,0.39,,2013-01-30 11:00:00,
2013-01-30 05:33:00,44.0,39.0,-100.00,NNW,332,14.0,-999.0,82,0.00,,,0.39,,2013-01-30 11:33:00,
2013-01-30 05:42:00,44.0,39.0,-100.00,NNW,332,14.0,-999.0,82,0.00,,,0.39,,2013-01-30 11:42:00,
2013-01-30 05:52:00,44.0,39.0,-100.00,NNW,332,14.0,-999.0,82,0.00,,,0.39,,2013-01-30 11:52:00,
2013-01-30 06:00:00,43.0,38.0,-100.00,NNW,330,8.0,-999.0,84,0.00,,,0.39,,2013-01-30 12:00:00,
2013-01-30 06:33:00,43.0,38.0,-100.00,NNW,330,8.0,-999.0,84,0.00,,,0.39,,2013-01-30 12:33:00,
2013-01-30 06:43:00,43.0,38.0,-100.00,NNW,330,8.0,-999.0,84,0.00,,,0.39,,2013-01-30 12:43:00,
2013-01-30 07:00:00,43.0,36.0,-100.00,NNW,333,10.0,-999.0,79,0.00,,,0.39,,2013-01-30 13:00:00,
2013-01-30 07:33:00,43.0,36.0,-100.00,NNW,333,10.0,-999.0,79,0.00,,,0.39,,2013-01-30 13:33:00,
2013-01-30 07:43:00,43.0,36.0,-100.00,NNW,333,10.0,-999.0,79,0.00,,,0.39,,2013-01-30 13:43:00,
2013-01-30 07:53:00,43.0,36.0,-100.00,NNW,333,10.0,-999.0,79,0.00,,,0.39,,2013-01-30 13:53:00,
2013-01-30 08:00:00,41.0,34.0,-100.00,NW,322,10.0,-999.0,77,0.00,,,0.39,,2013-01-30 14:00:00,
2013-01-30 08:33:00,41.0,34.0,-100.00,NW,322,10.0,-999.0,77,0.00,,,0.39,,2013-01-30 14:33:00,
2013-01-30 08:43:00,41.0,34.0,-100.00,NW,322,10.0,-999.0,77,0.00,,,0.39,,2013-01-30 14:43:00,
2013-01-30 08:53:00,41.0,34.0,-100.00,NW,322,10.0,-999.0,77,0.00,,,0.39,,2013-01-30 14:53:00,
2013-01-30 09:00:00,41.0,31.0,-100.00,NNW,329,12.0,-999.0,69,0.00,,,0.39,,2013-01-30 15:00:00,
2013-01-30 09:33:00,41.0,31.0,-100.00,NNW,329,12.0,-999.0,69,0.00,,,0.39,,2013-01-30 15:33:00,
2013-01-30 09:43:00,41.0,31.0,-100.00,NNW,329,12.0,-999.0,69,0.00,,,0.39,,2013-01-30 15:43:00,
2013-01-30 09:53:00,41.0,31.0,-100.00,NNW,329,12.0,-999.0,69,0.00,,,0.39,,2013-01-30 15:53:00,
2013-01-30 10:00:00,41.0,30.0,-100.00,NNW,335,13.0,-999.0,65,0.00,,,0.39,,2013-01-30 16:00:00,
2013-01-30 10:32:00,41.0,30.0,-100.00,NNW,335,13.0,-999.0,65,0.00,,,0.39,,2013-01-30 16:32:00,
2013-01-30 10:42:00,41.0,30.0,-100.00,NNW,335,13.0,-999.0,65,0.00,,,0.39,,2013-01-30 16:42:00,
2013-01-30 10:52:00,41.0,30.0,-100.00,NNW,335,13.0,-999.0,65,0.00,,,0.39,,2013-01-30 16:52:00,
2013-01-30 11:00:00,41.0,30.0,-100.00,NW,323,9.0,-999.0,66,0.00,,,0.39,,2013-01-30 17:00:00,
2013-01-30 11:33:00,41.0,30.0,-100.00,NW,323,9.0,-999.0,66,0.00,,,0.39,,2013-01-30 17:33:00,
2013-01-30 11:43:00,41.0,30.0,-100.00,NW,323,9.0,-999.0,66,0.00,,,0.39,,2013-01-30 17:43:00,
2013-01-30 11:53:00,41.0,30.0,-100.00,NW,323,9.0,-999.0,66,0.00,,,0.39,,2013-01-30 17:53:00,
2013-01-30 12:00:00,42.0,29.0,-100.00,NW,320,14.0,-999.0,60,0.00,,,0.38,,2013-01-30 18:00:00,
2013-01-30 12:33:00,42.0,29.0,-100.00,NW,320,14.0,-999.0,60,0.00,,,0.38,,2013-01-30 18:33:00,
2013-01-30 12:43:00,42.0,29.0,-100.00,NW,320,14.0,-999.0,60,0.00,,,0.38,,2013-01-30 18:43:00,
2013-01-30 12:53:00,42.0,29.0,-100.00,NW,320,14.0,-999.0,60,0.00,,,0.38,,2013-01-30 18:53:00,
2013-01-30 13:00:00,42.0,30.0,-100.00,NW,312,11.0,-999.0,63,0.00,,,0.33,,2013-01-30 19:00:00,
2013-01-30 13:32:00,42.0,30.0,-100.00,NW,312,11.0,-999.0,63,0.00,,,0.33,,2013-01-30 19:32:00,
2013-01-30 13:43:00,42.0,30.0,-100.00,NW,312,11.0,-999.0,63,0.00,,,0.33,,2013-01-30 19:43:00,
2013-01-30 13:53:00,42.0,30.0,-100.00,NW,312,11.0,-999.0,63,0.00,,,0.33,,2013-01-30 19:53:00,
2013-01-30 14:00:00,44.0,29.0,-100.00,NW,324,13.0,-999.0,56,0.00,,,0.31,,2013-01-30 20:00:00,
2013-01-30 14:33:00,44.0,29.0,-100.00,NW,324,13.0,-999.0,56,0.00,,,0.31,,2013-01-30 20:33:00,
2013-01-30 14:42:00,44.0,29.0,-100.00,NW,324,13.0,-999.0,56,0.00,,,0.31,,2013-01-30 20:42:00,
2013-01-30 14:53:00,44.0,29.0,-100.00,NW,324,13.0,-999.0,56,0.00,,,0.31,,2013-01-30 20:53:00,
2013-01-30 15:00:00,44.0,28.0,-100.00,NW,324,11.0,-999.0,53,0.00,,,0.20,,2013-01-30 21:00:00,
2013-01-30 15:32:00,44.0,28.0,-100.00,NW,324,11.0,-999.0,53,0.00,,,0.20,,2013-01-30 21:32:00,
2013-01-30 15:43:00,44.0,28.0,-100.00,NW,324,11.0,-999.0,53,0.00,,,0.20,,2013-01-30 21:43:00,
2013-01-30 15:53:00,44.0,28.0,-100.00,NW,324,11.0,-999.0,53,0.00,,,0.20,,2013-01-30 21:53:00,
2013-01-30 16:00:00,47.0,27.0,-100.00,NW,323,9.0,-999.0,47,0.00,,,0.20,,2013-01-30 22:00:00,
2013-01-30 16:32:00,47.0,27.0,-100.00,NW,323,9.0,-999.0,47,0.00,,,0.20,,2013-01-30 22:32:00,
2013-01-30 16:43:00,47.0,27.0,-100.00,NW,323,9.0,-999.0,47,0.00,,,0.20,,2013-01-30 22:43:00,
2013-01-30 16:53:00,47.0,27.0,-100.00,NW,323,9.0,-999.0,47,0.00,,,0.20,,2013-01-30 22:53:00,
2013-01-30 17:00:00,46.0,27.0,-100.00,West,276,7.0,-999.0,48,0.00,,,0.20,,2013-01-30 23:00:00,
2013-01-30 17:32:00,46.0,27.0,-100.00,West,276,7.0,-999.0,48,0.00,,,0.20,,2013-01-30 23:32:00,
2013-01-30 17:42:00,46.0,27.0,-100.00,West,276,7.0,-999.0,48,0.00,,,0.20,,2013-01-30 23:42:00,
2013-01-30 17:52:00,46.0,27.0,-100.00,West,276,7.0,-999.0,48,0.00,,,0.20,,2013-01-30 23:52:00,
2013-01-30 18:00:00,45.0,27.0,-100.00,WNW,299,4.0,-999.0,50,0.00,,,0.15,,2013-01-31 00:00:00,
2013-01-30 18:32:00,45.0,27.0,-100.00,WNW,299,4.0,-999.0,50,0.00,,,0.15,,2013-01-31 00:32:00,
2013-01-30 18:42:00,45.0,27.0,-100.00,WNW,299,4.0,-999.0,50,0.00,,,0.15,,2013-01-31 00:42:00,
2013-01-30 18:53:00,45.0,27.0,-100.00,WNW,299,4.0,-999.0,50,0.00,,,0.15,,2013-01-31 00:53:00,
2013-01-30 19:00:00,42.0,28.0,-100.00,West,276,0.0,-999.0,57,0.00,,,0.12,,2013-01-31 01:00:00,
2013-01-30 19:32:00,42.0,28.0,-100.00,West,276,0.0,-999.0,57,0.00,,,0.12,,2013-01-31 01:32:00,
2013-01-30 19:42:00,42.0,28.0,-100.00,West,276,0.0,-999.0,57,0.00,,,0.12,,2013-01-31 01:42:00,
2013-01-30 19:52:00,42.0,28.0,-100.00,West,276,0.0,-999.0,57,0.00,,,0.12,,2013-01-31 01:52:00,
2013-01-30 20:00:00,40.0,28.0,-100.00,West,271,0.0,-999.0,62,0.00,,,0.03,,2013-01-31 02:00:00,
2013-01-30 20:32:00,40.0,28.0,-100.00,West,271,0.0,-999.0,62,0.00,,,0.03,,2013-01-31 02:32:00,
2013-01-30 20:42:00,40.0,28.0,-100.00,West,271,0.0,-999.0,62,0.00,,,0.03,,2013-01-31 02:42:00,
2013-01-30 20:52:00,40.0,28.0,-100.00,West,271,0.0,-999.0,62,0.00,,,0.03,,2013-01-31 02:52:00,
2013-01-30 21:00:00,36.0,27.0,-100.00,SW,222,0.0,-999.0,68,0.00,,,0.01,,2013-01-31 03:00:00,
2013-01-30 21:32:00,36.0,27.0,-100.00,SW,222,0.0,-999.0,68,0.00,,,0.01,,2013-01-31 03:32:00,
2013-01-30 21:42:00,36.0,27.0,-100.00,SW,222,0.0,-999.0,68,0.00,,,0.01,,2013-01-31 03:42:00,
2013-01-30 21:52:00,36.0,27.0,-100.00,SW,222,0.0,-999.0,68,0.00,,,0.01,,2013-01-31 03:52:00,
2013-01-30 22:00:00,35.0,28.0,-100.00,WSW,258,0.0,-999.0,75,0.00,,,0.01,,2013-01-31 04:00:00,
2013-01-30 22:32:00,35.0,28.0,-100.00,WSW,258,0.0,-999.0,75,0.00,,,0.01,,2013-01-31 04:32:00,
2013-01-30 22:42:00,35.0,28.0,-100.00,WSW,258,0.0,-999.0,75,0.00,,,0.01,,2013-01-31 04:42:00,
2013-01-30 22:52:00,35.0,28.0,-100.00,WSW,258,0.0,-999.0,75,0.00,,,0.01,,2013-01-31 04:52:00,
2013-01-30 23:00:00,33.0,30.0,-100.00,North,10,0.0,-999.0,86,0.00,,,0.00,,2013-01-31 05:00:00,
2013-01-30 23:42:00,33.0,30.0,-100.00,North,10,0.0,-999.0,86,0.00,,,0.00,,2013-01-31 05:42:00,
2013-01-30 23:52:00,33.0,30.0,-100.00,North,10,0.0,-999.0,86,0.00,,,0.00,,2013-01-31 05:52:00,